Regional Weather Roundup
Issued by NWS Jackson, KY

Home | Current Version | Previous Version | Graphics & Text | Print | Product List | Glossary On
Versions: 1 2 3 4 5 6 7 8 9 10 11 12 13 14 15 16 17 18 19 20 21 22 23 24 25 26 27
000
ASUS43 KJKL 190410
RWRJKL

EAST KENTUCKY HOURLY WEATHER ROUNDUP
NATIONAL WEATHER SERVICE JACKSON KY
1200 AM EDT THU OCT 19 2017

NOTE: "FAIR" INDICATES FEW OR NO CLOUDS BELOW 12,000 FEET WITH
NO SIGNIFICANT WEATHER AND/OR OBSTRUCTIONS TO VISIBILITY.

* THESE REPORTS ARE NOT UNDER NWS QUALITY CONTROL AND MAY NOT
  REPORT WEATHER SUCH AS PRECIPITATION AND FOG.

KYZ079-080-083-085-087-088-110-112-115-119-120-190500
...EASTERN KENTUCKY...

CITY           SKY/WX    TMP DP  RH WIND       PRES   REMARKS
JACKSON        CLEAR     54  45  71 CALM      30.25F
LONDON         CLEAR     47  45  93 CALM      30.26S FOG
SOMERSET*      CLEAR     45  45 100 CALM      30.27F
MONTICELLO*    CLEAR     43  42  97 W9        30.27F
WILLIAMSBURG*  CLEAR     48  48 100 CALM      30.27S
MIDDLESBORO*   CLEAR     45  45 100 CALM      30.30S
HARLAN APT*    CLEAR     46  45  93 CALM      30.29S
PIKE CO APT*     N/A     56  46  69 SE3       30.26S
BIG SANDY APT* CLEAR     53  46  76 CALM      30.25F
MOREHEAD APT*  CLEAR     50  46  87 CALM      30.25S
$$

KYZ035-036-041-042-044-050-067-078-099-190500
...CENTRAL KENTUCKY...

CITY           SKY/WX    TMP DP  RH WIND       PRES   REMARKS
MT STERLING*   CLEAR     43  43 100 SW6       30.25S
FLEMING/MASON* CLEAR     52  44  75 S6        30.24S
DANVILLE*      CLEAR     45  43  93 CALM      30.25S
LEXINGTON      CLEAR     53  44  71 S7        30.23S
FRANKFORT      CLEAR     48  42  80 SW5       30.21S
LOUISVILLE     CLEAR     57  47  69 S3        30.21S
LEBANON*         N/A     52  43  71 S7        30.23S
GLASGOW*       CLEAR     46  46 100 CALM      30.23S
BOWLING GREEN  CLEAR     53  47  79 CALM      30.22F
$$

KYZ091>093-OHZ055-061-077-WVZ005-015-034-035-042-190500
...SOUTHERN OHIO/WEST VIRGINIA...

CITY           SKY/WX    TMP DP  RH WIND       PRES   REMARKS
COVINGTON      CLEAR     51  45  79 S6        30.19F
COLUMBUS       CLEAR     53  42  66 CALM      30.19F
DAYTON         CLEAR     54  45  71 S9        30.19S
WILMINGTON     CLEAR     50  44  80 SW6       30.20S
HUNTINGTON     CLEAR     48  44  86 CALM      30.23S
CHARLESTON     CLEAR     48  45  89 CALM      30.24S
PINEVILLE*     CLEAR     45  43  92 MISG      30.33S
BECKLEY        CLEAR     53  38  56 SE9       30.30F
BLUEFIELD      CLEAR     52  36  54 SE3       30.33S
LOGAN CO APT*    N/A     55  43  62 CALM      30.26S
$$

VAZ002-007-008-TNZ017-027-036-066-071-190500
...SOUTHWEST VIRGINIA/EAST TENNESSEE...

CITY           SKY/WX    TMP DP  RH WIND       PRES   REMARKS
WISE*          CLEAR     59  41  51 S6        30.31S
JONESVILLE*      N/A     45  43  93 CALM      30.32S
ABINGDON*      CLEAR     53  44  70 E5        30.31F
BRISTOL        PTCLDY    45  44  97 N3        30.30S
MORRISTOWN*    CLEAR     52  46  82 CALM      30.28S
SEVIERVILLE*   CLEAR     48  46  93 CALM      30.29S
KNOXVILLE      CLEAR     53  50  89 S3        30.28R
LAFOLLETTE*    CLEAR     46  45  93 CALM      30.32S
OAK RIDGE      CLEAR     50  50 100 CALM      30.30S
CROSSVILLE     CLEAR     45  42  89 CALM      30.29F
NASHVILLE      CLEAR     51  45  79 S6        30.24S
$$

...KEY TO REMARKS...
VSB - VISIBILITY IN MILES
WCI - WIND CHILL INDEX
HX  - HEAT INDEX

$$




USA.gov is the U.S. government's official web portal to all federal, state and local government web resources and services.